Retour au catalogue

COSMOS 445

ActifMilitaireLEO
NORAD 5548·PAYLOAD·🇷🇺 Russia

Lancé Oct 13, 1971 depuis Plesetsk Cosmodrome

Loading…

Prochains Passages (prochaines 24 heures)

TLE

FraisSource: Space-Track

Époque: Sep 14, 2026, 04:32 UTC

1 05548U 71086B   26257.18948981  .00000014  00000-0  17077-3 0  9994
2 05548  74.0294 168.0342 0102575 104.4607  47.5047 12.58230145522418

Suivez COSMOS 445 en temps réel avec AllMySat

Download on the App Store